Location: Lane
(33.5226°N, 79.8788°W)
Time: 21:56:27
(UTC+00:00)

Vanguard 2 Rocket - Pass Details

Date: 05 October 2022
Orbit: 555 x 3321 km, 32.9° (Epoch: 28 November)

Event Time Altitude Azimuth Distance (km) Brightness Sun altitude
Exits shadow 08:49:56 16° 147° (SSE) 1,830 8.6 -31.1°
Drops below altitude 10° 08:50:53 10° 141° (SE) 2,137 9.0 -30.9°
Sets 08:52:57 0° 132° (SE) 2,899 9.9 -30.5°
